Time,TemperatureF,DewpointF,PressureIn,WindDirection,WindDirectionDegrees,WindSpeedMPH,WindSpeedGustMPH,Humidity,HourlyPrecipIn,Conditions,Clouds,dailyrainin,SolarRadiationWatts/m^2,SoftwareType,DateUTC
2013-02-27 00:02:00,42.0,32.0,29.91,South,188,2.0,2.0,67,0.00,,,0.00,-45.000000,,2013-02-27 06:02:00,
2013-02-27 00:11:00,42.0,32.0,29.91,South,188,2.0,2.0,67,0.00,,,0.00,-45.000000,,2013-02-27 06:11:00,
2013-02-27 00:33:00,43.0,29.0,29.92,South,188,2.0,2.0,59,0.00,,,0.00,-51.000000,,2013-02-27 06:33:00,
2013-02-27 00:42:00,43.0,29.0,-100.00,South,188,2.0,2.0,59,0.00,,,0.00,-51.000000,,2013-02-27 06:42:00,
2013-02-27 00:52:00,43.0,29.0,-100.00,South,188,2.0,2.0,59,0.00,,,0.00,-51.000000,,2013-02-27 06:52:00,
2013-02-27 01:01:00,43.0,29.0,29.92,South,188,2.0,2.0,59,0.00,,,0.00,-51.000000,,2013-02-27 07:01:00,
2013-02-27 01:12:00,43.0,29.0,29.92,South,188,2.0,2.0,59,0.00,,,0.00,-51.000000,,2013-02-27 07:12:00,
2013-02-27 01:42:00,38.0,29.0,29.94,South,190,2.0,2.0,68,0.00,,,0.00,-40.000000,,2013-02-27 07:42:00,
2013-02-27 01:52:00,38.0,29.0,29.94,South,190,2.0,2.0,68,0.00,,,0.00,-40.000000,,2013-02-27 07:52:00,
2013-02-27 02:01:00,38.0,29.0,29.94,South,190,2.0,2.0,68,0.00,,,0.00,-40.000000,,2013-02-27 08:01:00,
2013-02-27 02:11:00,38.0,29.0,29.94,South,190,2.0,2.0,68,0.00,,,0.00,-40.000000,,2013-02-27 08:11:00,
2013-02-27 02:42:00,39.0,29.0,29.92,South,189,2.0,2.0,67,0.00,,,0.00,-47.000000,,2013-02-27 08:42:00,
2013-02-27 02:53:00,39.0,29.0,29.92,South,189,2.0,2.0,67,0.00,,,0.00,-47.000000,,2013-02-27 08:53:00,
2013-02-27 03:02:00,39.0,29.0,29.92,South,189,2.0,2.0,67,0.00,,,0.00,-47.000000,,2013-02-27 09:02:00,
2013-02-27 03:12:00,39.0,29.0,29.92,South,189,2.0,2.0,67,0.00,,,0.00,-47.000000,,2013-02-27 09:12:00,
2013-02-27 03:41:00,39.0,29.0,29.95,South,189,2.0,2.0,68,0.00,,,0.00,-46.000000,,2013-02-27 09:41:00,
2013-02-27 03:52:00,39.0,29.0,29.95,South,189,2.0,2.0,68,0.00,,,0.00,-46.000000,,2013-02-27 09:52:00,
2013-02-27 04:01:00,39.0,29.0,29.95,South,189,2.0,2.0,68,0.00,,,0.00,-46.000000,,2013-02-27 10:01:00,
2013-02-27 04:12:00,39.0,29.0,29.95,South,189,2.0,2.0,68,0.00,,,0.00,-46.000000,,2013-02-27 10:12:00,
2013-02-27 04:42:00,37.0,30.0,29.96,South,190,5.0,7.0,73,0.00,,,0.00,-59.000000,,2013-02-27 10:42:00,
2013-02-27 04:53:00,37.0,30.0,29.96,South,190,5.0,7.0,73,0.00,,,0.00,-59.000000,,2013-02-27 10:53:00,
2013-02-27 05:02:00,37.0,30.0,29.96,South,190,5.0,7.0,73,0.00,,,0.00,-59.000000,,2013-02-27 11:02:00,
2013-02-27 05:12:00,37.0,30.0,29.96,South,190,5.0,7.0,73,0.00,,,0.00,-59.000000,,2013-02-27 11:12:00,
2013-02-27 05:42:00,38.0,30.0,30.01,South,189,7.0,9.0,73,0.00,,,0.00,-59.000000,,2013-02-27 11:42:00,
2013-02-27 05:52:00,38.0,30.0,30.01,South,189,7.0,9.0,73,0.00,,,0.00,-59.000000,,2013-02-27 11:52:00,
2013-02-27 06:02:00,38.0,30.0,30.01,South,189,7.0,9.0,73,0.00,,,0.00,-59.000000,,2013-02-27 12:02:00,
2013-02-27 06:13:00,38.0,30.0,30.01,South,189,7.0,9.0,73,0.00,,,0.00,-59.000000,,2013-02-27 12:13:00,
2013-02-27 06:42:00,37.0,31.0,30.03,South,189,7.0,9.0,78,0.00,,,0.00,-59.000000,,2013-02-27 12:42:00,
2013-02-27 06:53:00,37.0,31.0,30.03,South,189,7.0,9.0,78,0.00,,,0.00,-59.000000,,2013-02-27 12:53:00,
2013-02-27 07:02:00,37.0,31.0,30.03,South,189,7.0,9.0,78,0.00,,,0.00,-59.000000,,2013-02-27 13:02:00,
2013-02-27 07:11:00,37.0,31.0,30.03,South,189,7.0,9.0,78,0.00,,,0.00,-59.000000,,2013-02-27 13:11:00,
2013-02-27 07:42:00,38.0,31.0,30.07,South,189,5.0,7.0,75,0.00,,,0.00,-7.000000,,2013-02-27 13:42:00,
2013-02-27 07:52:00,38.0,31.0,30.07,South,189,5.0,7.0,75,0.00,,,0.00,-7.000000,,2013-02-27 13:52:00,
2013-02-27 08:02:00,38.0,31.0,30.07,South,189,5.0,7.0,75,0.00,,,0.00,-7.000000,,2013-02-27 14:02:00,
2013-02-27 08:12:00,38.0,31.0,30.07,South,189,5.0,7.0,75,0.00,,,0.00,-7.000000,,2013-02-27 14:12:00,
2013-02-27 08:42:00,39.0,29.0,30.10,South,188,7.0,7.0,67,0.00,,,0.00,62.000000,,2013-02-27 14:42:00,
2013-02-27 08:52:00,39.0,29.0,30.10,South,188,7.0,7.0,67,0.00,,,0.00,62.000000,,2013-02-27 14:52:00,
2013-02-27 09:02:00,39.0,29.0,30.10,South,188,7.0,7.0,67,0.00,,,0.00,62.000000,,2013-02-27 15:02:00,
2013-02-27 09:12:00,39.0,29.0,30.10,South,188,7.0,7.0,67,0.00,,,0.00,62.000000,,2013-02-27 15:12:00,
2013-02-27 09:42:00,42.0,29.0,30.13,South,186,9.0,9.0,60,0.00,,,0.00,207.000000,,2013-02-27 15:42:00,
2013-02-27 09:52:00,42.0,29.0,30.13,South,186,9.0,9.0,60,0.00,,,0.00,207.000000,,2013-02-27 15:52:00,
2013-02-27 10:02:00,42.0,29.0,30.13,South,186,9.0,9.0,60,0.00,,,0.00,207.000000,,2013-02-27 16:02:00,
2013-02-27 10:12:00,42.0,29.0,30.13,South,186,9.0,9.0,60,0.00,,,0.00,207.000000,,2013-02-27 16:12:00,
2013-02-27 11:42:00,50.0,25.0,30.16,South,182,5.0,7.0,38,0.00,,,0.00,449.000000,,2013-02-27 17:42:00,
2013-02-27 11:52:00,50.0,25.0,30.16,South,182,5.0,7.0,38,0.00,,,0.00,449.000000,,2013-02-27 17:52:00,
2013-02-27 12:02:00,50.0,25.0,30.16,South,182,5.0,7.0,38,0.00,,,0.00,449.000000,,2013-02-27 18:02:00,
2013-02-27 12:11:00,50.0,25.0,30.16,South,182,5.0,7.0,38,0.00,,,0.00,449.000000,,2013-02-27 18:11:00,
2013-02-27 12:42:00,52.0,20.0,30.16,South,181,5.0,7.0,28,0.00,,,0.00,460.000000,,2013-02-27 18:42:00,
2013-02-27 12:52:00,52.0,20.0,30.16,South,181,5.0,7.0,28,0.00,,,0.00,460.000000,,2013-02-27 18:52:00,
2013-02-27 13:01:00,52.0,20.0,30.16,South,181,5.0,7.0,28,0.00,,,0.00,460.000000,,2013-02-27 19:01:00,
2013-02-27 13:12:00,52.0,20.0,30.16,South,181,5.0,7.0,28,0.00,,,0.00,460.000000,,2013-02-27 19:12:00,
2013-02-27 13:42:00,54.0,22.0,30.15,South,180,5.0,7.0,29,0.00,,,0.00,454.000000,,2013-02-27 19:42:00,
2013-02-27 13:52:00,54.0,22.0,30.15,South,180,5.0,7.0,29,0.00,,,0.00,454.000000,,2013-02-27 19:52:00,
2013-02-27 14:01:00,54.0,22.0,30.15,South,180,5.0,7.0,29,0.00,,,0.00,454.000000,,2013-02-27 20:01:00,
2013-02-27 14:12:00,54.0,22.0,30.15,South,180,5.0,7.0,29,0.00,,,0.00,454.000000,,2013-02-27 20:12:00,
2013-02-27 14:42:00,53.0,24.0,30.15,South,179,14.0,17.0,33,0.00,,,-99.99,415.000000,,2013-02-27 20:42:00,
2013-02-27 14:52:00,53.0,24.0,30.15,South,179,14.0,17.0,33,0.00,,,-99.99,415.000000,,2013-02-27 20:52:00,
2013-02-27 15:02:00,53.0,24.0,30.15,South,179,14.0,17.0,33,0.00,,,-99.99,415.000000,,2013-02-27 21:02:00,
2013-02-27 15:11:00,53.0,24.0,30.15,South,179,14.0,17.0,33,0.00,,,-99.99,415.000000,,2013-02-27 21:11:00,
2013-02-27 15:42:00,54.0,21.0,30.15,South,181,9.0,9.0,28,0.00,,,0.00,289.000000,,2013-02-27 21:42:00,
2013-02-27 15:52:00,54.0,21.0,30.15,South,181,9.0,9.0,28,0.00,,,0.00,289.000000,,2013-02-27 21:52:00,
2013-02-27 16:01:00,54.0,21.0,30.15,South,181,9.0,9.0,28,0.00,,,0.00,289.000000,,2013-02-27 22:01:00,
2013-02-27 16:11:00,54.0,21.0,30.15,South,181,9.0,9.0,28,0.00,,,0.00,289.000000,,2013-02-27 22:11:00,
2013-02-27 16:42:00,55.0,21.0,30.13,South,179,10.0,14.0,26,0.00,,,0.00,182.000000,,2013-02-27 22:42:00,
2013-02-27 16:52:00,55.0,21.0,30.13,South,179,10.0,14.0,26,0.00,,,0.00,182.000000,,2013-02-27 22:52:00,
2013-02-27 17:01:00,55.0,21.0,30.13,South,179,10.0,14.0,26,0.00,,,0.00,182.000000,,2013-02-27 23:01:00,
2013-02-27 17:11:00,55.0,21.0,30.13,South,179,10.0,14.0,26,0.00,,,0.00,182.000000,,2013-02-27 23:11:00,
2013-02-27 17:42:00,54.0,16.0,30.14,South,179,10.0,12.0,22,0.00,,,-99.99,32.000000,,2013-02-27 23:42:00,
2013-02-27 17:53:00,54.0,16.0,30.14,South,179,10.0,12.0,22,0.00,,,-99.99,32.000000,,2013-02-27 23:53:00,
2013-02-27 18:02:00,54.0,16.0,30.14,South,179,10.0,12.0,22,0.00,,,-99.99,32.000000,,2013-02-28 00:02:00,
2013-02-27 18:12:00,54.0,16.0,30.14,South,179,10.0,12.0,22,0.00,,,-99.99,32.000000,,2013-02-28 00:12:00,
2013-02-27 18:42:00,51.0,20.0,30.17,South,181,10.0,10.0,29,0.00,,,0.00,-79.000000,,2013-02-28 00:42:00,
2013-02-27 18:52:00,51.0,20.0,30.17,South,181,10.0,10.0,29,0.00,,,0.00,-79.000000,,2013-02-28 00:52:00,
2013-02-27 19:01:00,51.0,20.0,30.17,South,181,10.0,10.0,29,0.00,,,0.00,-79.000000,,2013-02-28 01:01:00,
2013-02-27 19:11:00,51.0,20.0,30.17,South,181,10.0,10.0,29,0.00,,,0.00,-79.000000,,2013-02-28 01:11:00,
2013-02-27 19:42:00,49.0,22.0,30.19,South,184,9.0,9.0,35,0.00,,,0.00,-83.000000,,2013-02-28 01:42:00,
2013-02-27 19:52:00,49.0,22.0,30.19,South,184,9.0,9.0,35,0.00,,,0.00,-83.000000,,2013-02-28 01:52:00,
2013-02-27 20:01:00,49.0,22.0,30.19,South,184,9.0,9.0,35,0.00,,,0.00,-83.000000,,2013-02-28 02:01:00,
2013-02-27 20:11:00,49.0,22.0,30.19,South,184,9.0,9.0,35,0.00,,,0.00,-83.000000,,2013-02-28 02:11:00,
2013-02-27 21:01:00,47.0,24.0,30.21,South,185,9.0,10.0,40,0.00,,,0.00,-81.000000,,2013-02-28 03:01:00,
2013-02-27 21:11:00,47.0,24.0,30.21,South,185,9.0,10.0,40,0.00,,,0.00,-81.000000,,2013-02-28 03:11:00,
2013-02-27 21:32:00,45.0,24.0,30.23,South,186,9.0,12.0,44,0.00,,,0.00,-80.000000,,2013-02-28 03:32:00,
2013-02-27 21:42:00,45.0,24.0,30.23,South,186,9.0,12.0,44,0.00,,,0.00,-80.000000,,2013-02-28 03:42:00,
2013-02-27 21:52:00,45.0,24.0,30.23,South,186,9.0,12.0,44,0.00,,,0.00,-80.000000,,2013-02-28 03:52:00,
2013-02-27 22:01:00,45.0,24.0,30.23,South,186,9.0,12.0,44,0.00,,,0.00,-80.000000,,2013-02-28 04:01:00,
2013-02-27 22:11:00,45.0,24.0,30.23,South,186,9.0,12.0,44,0.00,,,0.00,-80.000000,,2013-02-28 04:11:00,
2013-02-27 22:32:00,43.0,25.0,30.25,South,187,10.0,10.0,48,0.00,,,0.00,-73.000000,,2013-02-28 04:32:00,
2013-02-27 22:42:00,43.0,25.0,30.25,South,187,10.0,10.0,48,0.00,,,0.00,-73.000000,,2013-02-28 04:42:00,
2013-02-27 22:52:00,43.0,25.0,30.25,South,187,10.0,10.0,48,0.00,,,0.00,-73.000000,,2013-02-28 04:52:00,
2013-02-27 23:01:00,43.0,25.0,30.25,South,187,10.0,10.0,48,0.00,,,0.00,-73.000000,,2013-02-28 05:01:00,
2013-02-27 23:11:00,43.0,25.0,30.25,South,187,10.0,10.0,48,0.00,,,0.00,-73.000000,,2013-02-28 05:11:00,
2013-02-27 23:42:00,41.0,25.0,30.26,South,187,7.0,9.0,51,0.00,,,0.00,-76.000000,,2013-02-28 05:42:00,
2013-02-27 23:52:00,41.0,25.0,30.26,South,187,7.0,9.0,51,0.00,,,0.00,-76.000000,,2013-02-28 05:52:00,